www.pogodaiklimat.ru

Погода и климат >> Архив погоды >> Россия >> Нижегородская область >> Дальнее Константиново


ПОГОДА в Дальнем Константиново

  • Прогноз погоды в Дальнем Константиново
  • Монитор погоды в Дальнем Константиново
  • Климат города

АРХИВ ПОГОДЫ в Дальнем Константиново

Время (UTC), дата Ветер
(напр.,м/с)
 
Видим.   Явления Облачность Т
(С)
Тd
(С)
f
(%)
Тe
(С)
Тes
(С)
Комфортность P
(гПа)
Po
(гПа)
Тmin
(С)
Tmax
(С)
R
(мм)
R24
(мм)
S
(см)
09 14.06 С 4-6
{6}
10 км 10/10
[Sc]
+10.8 +4.6 66 +9 +9 1014.8 998.7
12 14.06 СЗ 3-5
{8}
10 км 8/8 600 м
[Cu hum]
+14.1 +4.6 53 +13 +15 1015.1 999.2
15 14.06 С 3-5
{9}
10 км 3/3 600 м
[Cu hum]
+14.5 +2.9 46 +14 +15 1015.1 999.2 +14.9
18 14.06 СЗ 1-2
{7}
10 км 8/8 600 м
[Sc diur, vesp]
+11.4 +4.3 62 +11 +11 1015.8 999.7
21 14.06 С 1-2
{2}
4000 м 3/0
[Cs]
+7.9 +4.5 79 +7 +7 1017.2 1000.9
00 15.06 штиль 0
{3}
10 км 8/0
[Ci]
+4.3 +3.3 93 +3 +3 1018.7 1002.3
03 15.06 штиль 0
{2}
10 км 8/0
[Ci]
+6.8 +5.0 88 +6 +8 1019.8 1003.4 +3.8
06 15.06 СВ 4-7
{7}
10 км 4/0
[Ci fib]
+12.9 +0.4 42 +11 +18 1020.2 1004.1
09 15.06 СВ 4-6
{8}
10 км 1/1 600 м
[Cu hum]
+15.1 +1.1 39 +14 +24 1019.9 1003.9
12 15.06 С 5-7
{9}
10 км 4/4 600 м
[Cu hum]
+16.8 +2.5 38 +16 +20 1019.1 1003.3
15 15.06 СВ 4-6
{8}
10 км 8/8 600 м
[Cu med, cong]
+16.8 +2.9 39 +16 +17 1018.9 1003.1 +17.6
18 15.06 ЮЗ 1-1
{6}
10 км 1/0
[Ci fib]
+11.9 +6.4 69 +12 +12 1019.0 1002.8
21 15.06 ЮЗ 1-1
{3}
4000 м ясно +7.5 +5.8 89 +7 +7 1019.7 1003.3
00 16.06 ЮЗ 1-2
{2}
10 км 10/0
[Ac und]
+6.4 +5.0 91 +5 +5 1020.1 1003.7
03 16.06 штиль 0
{2}
10 км 6/0
[Ac trans]
+12.7 +7.1 69 +12 +14 1020.1 1004.0 +6.3
06 16.06 СВ 1-3
{4}
10 км 1/1 600 м
[Cu hum]
+17.5 +7.8 53 +19 +30 1019.7 1003.9
09 16.06 С 4-6
{9}
10 км 4/4 600 м
[Cu hum]
+19.0 +4.1 37 +19 +26 1019.2 1003.5
12 16.06 С 3-7
{13}
10 км 1/1 600 м
[Cu hum]
+20.7 +3.6 32 +22 +30 комфорт 1018.7 1003.1
15 16.06 С 3-5
{7}
10 км ясно +20.5 +3.8 33 +21 +23 комфорт 1018.4 1002.8 +21.0
18 16.06 СЗ 2-2
{6}
10 км ясно +16.2 +5.3 48 +16 +16 1019.0 1003.2
21 16.06 ЮЗ 1-2
{3}
4000 м ясно +9.9 +6.2 78 +10 +10 1019.8 1003.5
00 17.06 ЮЗ 1-2
{2}
10 км ясно +7.8 +5.3 84 +7 +7 1020.3 1003.9
03 17.06 ЮЗ 1-1
{3}
10 км ясно +13.5 +8.9 74 +14 +16 1020.1 1004.0 +7.4
06 17.06 С 3-5
{7}
10 км 9/0
[Ci]
+20.5 +8.8 47 +22 +29 комфорт 1019.1 1003.5
09 17.06 С 4-8
{8}
10 км 9/1 600 м
[Cu hum Ci]
+23.6 +7.7 36 +24 +32 комфорт 1017.6 1002.2
12 17.06 С 4-7
{9}
10 км 3/3 600 м
[Cu hum]
+25.2 +8.0 33 +25 +30 комфорт 1016.2 1000.9
15 17.06 С 5-9
{9}
10 км 3/3 600 м
[Cu hum]
+24.5 +10.7 42 +26 +27 жарко 1015.2 999.9 +25.3
18 17.06 СЗ 2-3
{9}
10 км 1/1 1000 м
[Cu hum]
+20.6 +11.9 57 +23 +23 комфорт 1015.5 1000.0
21 17.06 З 1-1
{3}
4000 м 3/0
[Ac cast]
+14.8 +11.9 83 +15 +15 1015.9 1000.0
00 18.06 ЮЗ 2-2
{2}
10 км 3/3 1000 м
[Cu hum]
+12.8 +11.1 89 +12 +12 1016.3 1000.3
03 18.06 штиль 0
{3}
10 км 3/3 1000 м
[Sc]
+14.8 +12.4 86 +14 +17 1016.3 1000.4 +12.4
06 18.06 СЗ 1-2
{3}
10 км ясно +22.5 +14.8 62 +26 +38 жарко 1015.3 999.9
09 18.06 С 2-4
{6}
10 км 8/8 1000 м
[Cu med, cong]
+26.0 +12.8 44 +28 +31 жарко 1014.4 999.2
12 18.06 С 3-5
{7}
10 км 3/3 1000 м
[Cu med, cong]
+26.8 +9.4 33 +27 +33 жарко 1013.5 998.3
15 18.06 С 2-3
{7}
10 км ясно +26.7 +8.0 31 +27 +29 жарко 1012.7 997.5 +27.0
18 18.06 СЗ 1-2
{4}
10 км ясно +21.7 +13.2 58 +24 +24 комфорт 1013.0 997.6
21 18.06 ЮЗ 1-2
{2}
4000 м ясно +15.5 +13.5 88 +16 +16 1013.6 997.8
00 19.06 ЮЗ 1-2
{3}
10 км 9/0
[Ac cast]
+13.4 +12.1 92 +14 +14 1013.8 997.8
03 19.06 ЮЗ 1-2
{3}
10 км 8/0
[Ac cast]
+16.9 +14.5 86 +18 +19 1013.4 997.6 +13.3
06 19.06 СЗ 2-4
{4}
10 км 1/0
[Ac cast]
+24.7 +14.3 52 +27 +37 жарко 1012.0 996.7
09 19.06 СЗ 4-6
{7}
10 км 8/8 1000 м
[Cu med, cong]
+26.8 +12.5 41 +28 +30 жарко 1011.0 995.8
12 19.06 Ю 3-4
{9}
10 км гроза без осадков {ливн. осадки} 8/8 600 м
[Cu med, cong]
+24.3 +13.9 52 +27 +28 жарко 1009.7 994.4
15 19.06 З 2-3
{5}
10 км {гроза} 8/0
[Ci]
+27.2 +11.8 38 +28 +30 жарко 1008.0 992.8 +28.0 0.0
18 19.06 З 2-3
{5}
10 км {гроза} 1/1 600 м
[Cb cap]
+21.6 +13.6 60 +24 +24 комфорт 1008.0 992.6
21 19.06 ЮЗ 1-2
{4}
4000 м 8/0
[Ac trans]
+18.6 +13.9 74 +20 +20 1007.1 991.6
00 20.06 ЮЗ 2-3
{5}
10 км 10/0
[As op]
+17.1 +14.3 84 +17 +17 1005.6 990.0
03 20.06 З 3-6
{6}
10 км 10/10 600 м
[Sc]
+17.8 +14.1 79 +18 +18 1004.2 988.7 +16.9
06 20.06 З 6
{11}
10 км {ливн. осадки} 8/8 1000 м
[Cu med, cong]
+20.4 +14.8 70 +23 +24 комфорт 1003.6 988.2
09 20.06 СЗ 8-13
{15}
10 км {ливн. осадки} 4/4 1000 м
[Cu hum]
+19.4 +7.3 45 +19 +21 1004.2 988.7
12 20.06 СЗ 7-13
{17}
10 км {ливн. осадки} 6/6 1000 м
[Cu hum]
+20.4 +5.1 37 +21 +22 комфорт 1004.4 989.0
15 20.06 СЗ 6-12
{14}
10 км 8/8 1000 м
[Cu med, cong]
+20.6 +4.6 35 +21 +21 комфорт 1004.8 989.4 +21.3 0.0
18 20.06 З 2-3
{10}
10 км 8/0
[Ac trans]
+14.7 +7.8 63 +14 +14 1005.8 990.1
21 20.06 З 2-4
{7}
4000 м 4/0
[Ac trans]
+13.5 +7.8 68 +13 +13 1006.7 990.9
00 21.06 З 3-5
{7}
10 км ясно +11.9 +6.7 70 +10 +10 1007.1 991.2
03 21.06 З 4-6
{9}
10 км ясно +13.6 +7.3 66 +12 +14 1007.6 991.8 +11.7

 

Местоположение метеостанции Дальнее Константиново (Нижегородская область, Россия): широта 55.80 долгота 44.08 высота над уровнем моря 133 м.

В архиве по умолчанию представлена погода в Дальнем Константиново за последнюю неделю. Архивные данные за месяц целиком и за предыдущие месяцы, начиная с января 2011 года, Вы можете получить, выбрав интересующий диапазон дат из раскрывающегося списка и нажав кнопку "Ввод!".


*Определитесь, кто Вы:
робот инопланетянин человек

Внимание! Время в таблицах - всемирное. Для получения местного времени необходимо прибавить поправку, которая в Дальнем Константиново равна 3 ч.

Смотрите также архив погоды в соседних городах и на ближайших метеорологических станциях:

Погода в Нижнем Новгороде аэропорт (Нижегородская область, Россия) (51 км)
Погода в Арзамасе (Нижегородская область, Россия) (51 км)
Погода в Нижнем Новгороде (Нижегородская область, Россия) (53 км)
Погода в Лысково (Нижегородская область, Россия) (64 км)
Погода в Павлово (Нижегородская область, Россия) (68 км)
Погода в Лукоянове (Нижегородская область, Россия) (90 км)
Погода в Балахне (Нижегородская область, Россия) (92 км)
Погода в Сергаче (Нижегородская область, Россия) (94 км)
Погода в Волжской ГМО (Нижегородская область, Россия) (106 км)
Погода в Семенове (Нижегородская область, Россия) (107 км)

Пояснения к столбцам:

Ветер - указаны скорость ветра в м/с - средняя за 10 мин, порывы в срок и между сроками (в фигурных скобках) и направление, откуда дует ветер: С - северный, СВ - северо-восточный, В - восточный, ЮВ - юго-восточный, Ю - южный, ЮЗ - юго-западный, З - западный, СЗ - северо-западный.
Видимость - горизонтальная дальность видимости в метрах или километрах. При видимости от 1 до 10 км при отсутствии осадков обычно наблюдается дымка, при ухудшении видимости до 1 км и менее - туман. В сухую погоду видимость может ухудшаться дымом, пылью или мглою.
Явления - указаны атмосферные явления, наблюдавшиеся в срок или в последний час перед сроком; фигурными скобками обозначены явления, наблюдавшиеся между сроками (за 1-3 часа до срока); квадратными скобками обозначены град или гололедные отложения с указанием их диаметра в мм.
Облачность - указаны через наклонную черту общая и нижняя облачность в баллах и высота нижней границы облаков в метрах; квадратными скобками обозначены формы облаков: Ci - перистые, Cs - перисто-слоистые, Cc - перисто-кучевые, Ac - высококучевые, As - высокослоистые, Sc - слоисто-кучевые, Ns - слоисто-дождевые, Cu - кучевые, Cb - кучево-дождевые. Подробнее классификацию облаков см. в Атласе облаков (PDF).
T - Температура воздуха - температура, измеренная на высоте 2 м над землей.
Td - Температура точки росы - температура, при понижении до которой содержащийся в воздухе водяной пар достигнет насыщения.
f - Относительная влажность воздуха - влажноcть воздуха, измеренная на высоте 2 м над землей.
Te - Эффективная температура - температура, которую ощущает одетый по сезону человек в тени. Характеристика душности погоды. При расчете учитывается влияние влажности воздуха и скорости ветра на теплоощущения человека.
Tes - Эффективная температура на солнце - температура, которую ощущает человек, с поправкой на солнечный нагрев. Характеристика знойности погоды. Зависит от высоты солнца над горизонтом, облачности и скорости ветра. Ночью, в пасмурную погоду, а также при ветре 12 м/с и более поправка равна нулю.
P - Атмосферное давление - приведенное к уровню моря атмосферное давление.
Po - Атмосферное давление - измеренное на уровне метеостанции атмосферное давление.
Tmin - Минимальная температура - минимум температуры воздуха на высоте 2 м над землей.
Tmax - Максимальная температура - максимум температуры воздуха на высоте 2 м над землей.
R - Количество осадков - Количество выпавших осадков за период времени, мм. При наведении курсора мыши на число - период времени, за который выпало указанное количество осадков.
R24 - Количество осадков - Количество выпавших осадков за 24 часа, мм.
S - Снежный покров - Высота снежного покрова, см. При наведении курсора мыши на число - состояние снежного покрова и степень покрытия местности в баллах.